Location: Unspecified
(0.0000°N, 0.0000°E)
Time: 06:37:40
(UTC+00:00)

Amateur Radio Satellites - All Passes

Search period start: 27 November 2014 06:07
Search period end: 28 November 2014 06:07
Location: Unspecified, 0.0000°N, 0.0000°E

Satellite Date Start Highest point End Downlink Frequencies (MHz)
Time Altitude Azimuth
PRISM 27 Nov 06:16:07 06:19:52 33° 258° (WSW) 06:23:38 437.425
SRMSAT 27 Nov 06:17:54 06:23:17 34° 19° (NNE) 06:28:39 437.500
STRAND 1 27 Nov 06:24:10 06:29:18 70° 77° (ENE) 06:34:25 437.568
Cubesat XI-IV 27 Nov 06:35:58 06:40:42 34° 283° (WNW) 06:45:28 437.490
BEESAT 3 27 Nov 06:45:49 06:49:32 34° 248° (WSW) 06:53:12 437.485
AIST 1 27 Nov 07:00:22 07:04:40 79° 87° (E) 07:08:57
GONETS M04 27 Nov 07:01:06 07:09:00 38° 93° (E) 07:16:53
BEESAT 2 27 Nov 07:02:32 07:05:48 23° 248° (WSW) 07:09:03 435.950
CUBESAT XI-V 27 Nov 07:08:54 07:12:50 27° 258° (WSW) 07:16:47 437.345
PCSat 27 Nov 07:18:21 07:20:41 13° 250° (WSW) 07:23:02 145.827
CUTE-I 27 Nov 07:20:32 07:21:44 11° 283° (WNW) 07:22:56 437.470
ISS 27 Nov 07:20:53 07:22:21 12° 54° (NE) 07:23:49 145.825
AIST 2 27 Nov 07:42:01 07:44:52 18° 248° (WSW) 07:47:41 435.215
CUTE 1.7 + AOD 2 27 Nov 07:45:15 07:47:26 14° 102° (ESE) 07:49:37 437.475
JUGNU 27 Nov 07:54:50 08:00:30 44° 200° (SSW) 08:06:10 437.505
HO-68 27 Nov 07:54:52 08:01:12 35° 105° (ESE) 08:07:31 435.675
GOMX 1 27 Nov 08:04:12 08:07:11 18° 104° (ESE) 08:10:17 467.674
SRMSAT 27 Nov 08:06:35 08:12:35 88° 202° (SSW) 08:18:33 437.500
SEEDS 27 Nov 08:15:16 08:19:04 31° 102° (ESE) 08:22:53 437.485
Oscar 11 27 Nov 08:26:09 08:27:59 13° 102° (ESE) 08:29:50 145.826/435.025
AAUSAT CUBESAT 2 27 Nov 08:29:50 08:33:42 35° 102° (ESE) 08:37:34 437.432
DELFI C3 27 Nov 08:32:10 08:33:27 11° 102° (ESE) 08:34:45 145.870
BRITE-PL 27 Nov 08:36:43 08:41:02 78° 102° (ESE) 08:45:42 437.365/2234.400
CANX-2 27 Nov 08:44:21 08:48:37 68° 281° (WNW) 08:52:55 2200.000
COMPASS 1 27 Nov 08:45:31 08:49:45 73° 102° (ESE) 08:54:00 437.405
UWE-3 27 Nov 08:49:19 08:50:55 12° 103° (ESE) 08:52:31 435.000/436.395/437.385
CUBEBUG 2 27 Nov 08:50:19 08:52:56 15° 103° (ESE) 08:55:36 437.445
DX 1 27 Nov 08:50:36 08:54:08 25° 102° (ESE) 08:57:41 434.975-435.025
DOVE 4 27 Nov 08:53:34 08:57:56 60° 102° (ESE) 09:02:36 437.250
ISS 27 Nov 08:56:17 08:58:47 20° 234° (SW) 09:01:18 145.825
GONETS M04 27 Nov 08:58:24 09:05:24 27° 273° (W) 09:12:29
CUTE 1.7 + AOD 2 27 Nov 09:19:39 09:23:05 24° 282° (WNW) 09:26:34 437.475
ZACube-1 27 Nov 09:19:45 09:23:27 27° 102° (ESE) 09:27:13 437.345
CINEMA 3 27 Nov 09:21:19 09:25:46 78° 102° (ESE) 09:30:29 145.822/145.860
VELOX 1 27 Nov 09:26:02 09:28:53 17° 102° (ESE) 09:31:46 145.980
ANTELSAT 27 Nov 09:36:05 09:39:09 19° 79° (ENE) 09:42:10 437.575/2403.000
POLYITAN 1 27 Nov 09:41:30 09:43:41 14° 78° (ENE) 09:45:51 437.675
GOMX 1 27 Nov 09:41:46 09:45:02 21° 280° (W) 09:48:28 467.674
QB50P2 27 Nov 09:42:53 09:45:13 14° 78° (ENE) 09:47:32 145.880/145.840
HO-68 27 Nov 09:42:57 09:48:34 26° 285° (WNW) 09:54:13 435.675
JUGNU 27 Nov 09:45:52 09:49:55 19° 195° (SSW) 09:53:58 437.505
DUCHIFAT 1 27 Nov 09:47:45 09:50:29 17° 78° (ENE) 09:53:13 145.980
UKube-1 27 Nov 09:49:19 09:53:25 45° 282° (WNW) 09:57:33 .
AISAT 27 Nov 09:51:41 09:55:49 41° 102° (ESE) 09:59:59 437.250
FUNcube-1 27 Nov 09:53:44 09:58:07 83° 102° (ESE) 10:02:37 145.935
SRMSAT 27 Nov 09:56:35 10:01:52 33° 199° (SSW) 10:07:09 437.500
Oscar 11 27 Nov 10:00:14 10:03:53 27° 282° (WNW) 10:07:33 145.826/435.025
CUBEBUG 1 27 Nov 10:02:10 10:04:25 14° 102° (ESE) 10:06:41 437.445
DELFI C3 27 Nov 10:05:03 10:08:29 26° 282° (WNW) 10:11:56 145.870
NANOSAT C BR1 27 Nov 10:06:16 10:10:05 31° 78° (ENE) 10:13:52 145.865
50 SAT 27 Nov 10:10:51 10:14:54 59° 102° (ESE) 10:18:59 437.505
QB50P1 27 Nov 10:16:03 10:20:09 44° 78° (ENE) 10:24:12 145.935-145.965
BUGSAT 1 27 Nov 10:20:30 10:24:32 40° 78° (ENE) 10:28:32 437.445
UWE-3 27 Nov 10:23:17 10:27:08 30° 281° (W) 10:31:07 435.000/436.395/437.385
CUBEBUG 2 27 Nov 10:25:47 10:29:21 24° 281° (W) 10:33:01 437.445
PHONESAT 2.4 27 Nov 10:26:47 10:30:25 66° 137° (SE) 10:34:04 2401.200-2431.200
DX 1 27 Nov 10:28:04 10:30:07 13° 282° (WNW) 10:32:11 434.975-435.025
TIGRISAT 27 Nov 10:28:10 10:32:32 74° 258° (WSW) 10:36:48 435.000
HUMSAT D 27 Nov 10:29:50 10:33:58 54° 281° (WNW) 10:38:11 437.325/437.525
VERMONT LUNAR 27 Nov 10:33:16 10:36:46 52° 317° (NW) 10:40:15 437.305
POPSAT HIP 1 27 Nov 10:40:47 10:45:06 77° 258° (WSW) 10:49:21 437.405
UNISAT 6 27 Nov 10:42:41 10:46:51 44° 258° (WSW) 10:50:56 437.425
ZACube-1 27 Nov 10:57:32 10:59:35 13° 281° (W) 11:01:39 437.345
VELOX 1 27 Nov 11:02:00 11:05:13 20° 282° (WNW) 11:08:27 145.980
ESTCUBE 1 27 Nov 11:03:44 11:08:12 67° 282° (WNW) 11:12:40 437.505/2401.250
TISAT 1 27 Nov 11:06:51 11:09:55 20° 102° (ESE) 11:12:59 437.305
ANTELSAT 27 Nov 11:12:50 11:15:42 17° 257° (WSW) 11:18:32 437.575/2403.000
POLYITAN 1 27 Nov 11:15:56 11:19:23 24° 258° (WSW) 11:22:48 437.675
QB50P2 27 Nov 11:17:32 11:20:53 22° 258° (WSW) 11:24:13 145.880/145.840
SPROUT 27 Nov 11:19:58 11:23:32 26° 102° (ESE) 11:27:07 437.525
DUCHIFAT 1 27 Nov 11:23:01 11:26:06 19° 258° (WSW) 11:29:10 145.980
CUSAT 1 27 Nov 11:31:44 11:34:22 17° 102° (ESE) 11:36:37 437.405
CUBEBUG 1 27 Nov 11:37:07 11:40:32 23° 282° (WNW) 11:43:58 437.445
JUGNU 27 Nov 11:38:50 11:39:53 10° 186° (S) 11:40:56 437.505
SRMSAT 27 Nov 11:48:18 11:51:35 15° 192° (SSW) 11:54:52 437.500
DANDE 27 Nov 12:01:51 12:05:59 44° 98° (E) 12:09:08 436.750
Oscar 19 27 Nov 12:12:14 12:14:57 15° 77° (ENE) 12:17:40 437.125/150
ITUPSAT 1 27 Nov 12:27:29 12:31:13 23° 103° (ESE) 12:34:57 437.325
AUBIESAT-1 27 Nov 12:34:15 12:38:37 42° 105° (ESE) 12:42:42 437.475
SWISSCUBE 27 Nov 12:37:18 12:41:38 35° 102° (ESE) 12:45:58 437.505
M-CUBED/EXP-1 PRIME 27 Nov 12:40:11 12:44:48 59° 105° (ESE) 12:49:05 437.505
TISAT 1 27 Nov 12:43:00 12:45:30 16° 282° (WNW) 12:48:00 437.305
SPROUT 27 Nov 12:57:44 12:59:22 12° 282° (WNW) 13:01:01 437.525
ITAMSAT 1 27 Nov 13:06:58 13:10:50 21° 77° (ENE) 13:14:41 435.822/435.867
BEESAT 27 Nov 13:07:38 13:12:24 84° 102° (ESE) 13:17:10 436.000
KKS-1 27 Nov 13:15:51 13:17:47 13° 103° (ESE) 13:19:42 437.445
JUGNU 27 Nov 13:29:12 13:30:07 10° 175° (S) 13:31:02 437.505
SO-50 27 Nov 13:33:28 13:38:18 62° 68° (ENE) 13:43:04 436.795
YUBILEINY 27 Nov 13:43:34 13:52:06 64° 87° (E) 14:00:40 435.215
Gurwin Techsat 1B 27 Nov 13:46:01 13:50:40 31° 77° (ENE) 13:55:18 435.225
MaSat-1 27 Nov 13:48:26 13:51:41 33° 286° (WNW) 13:54:40 437.345
Oscar 19 27 Nov 13:49:28 13:54:01 33° 257° (WSW) 13:58:33 437.125/150
RS-15 27 Nov 13:59:22 14:10:33 59° 111° (ESE) 14:21:13 29.354- 29.394
ITUPSAT 1 27 Nov 14:05:39 14:08:50 18° 283° (WNW) 14:12:03 437.325
STARS 27 Nov 14:06:33 14:10:41 41° 102° (ESE) 14:14:51 437.465
SWISSCUBE 27 Nov 14:17:47 14:19:13 11° 283° (WNW) 14:20:40 437.505
HORYU 2 27 Nov 14:44:17 14:48:39 58° 78° (ENE) 14:52:59 437.375
ITAMSAT 1 27 Nov 14:45:54 14:50:03 24° 257° (WSW) 14:54:11 435.822/435.867
KKS-1 27 Nov 14:50:23 14:54:08 28° 282° (WNW) 14:57:56 437.445
JUGNU 27 Nov 15:16:06 15:20:03 18° 165° (SSE) 15:23:59 437.505
AO-7 27 Nov 15:16:10 15:23:50 42° 74° (ENE) 15:31:27 29.400- 29.500
Gurwin Techsat 1B 27 Nov 15:27:04 15:30:21 17° 257° (WSW) 15:33:37 435.225
SRMSAT 27 Nov 15:30:03 15:32:12 12° 171° (S) 15:34:21 437.500
YUBILEINY 27 Nov 15:44:24 15:48:31 14° 267° (W) 15:52:40 435.215
MOZHAYETS 4 27 Nov 16:04:54 16:08:51 28° 102° (ESE) 16:12:48
RS-15 27 Nov 16:14:28 16:22:25 22° 292° (WNW) 16:30:16 29.354- 29.394
O/OREOS (USA 219) 27 Nov 16:21:01 16:25:26 61° 76° (ENE) 16:29:55 437.305
PRISM 27 Nov 16:48:38 16:49:21 10° 102° (ESE) 16:50:04 437.425
JAS-2 27 Nov 16:51:58 16:58:53 79° 77° (ENE) 17:06:31 435.910
JUGNU 27 Nov 17:03:54 17:09:26 43° 160° (SSE) 17:14:58 437.505
AO-7 27 Nov 17:09:48 17:16:14 26° 253° (WSW) 17:22:42 29.400- 29.500
SRMSAT 27 Nov 17:17:30 17:22:09 24° 163° (SSE) 17:26:48 437.500
BEESAT 2 27 Nov 17:22:17 17:24:32 15° 112° (ESE) 17:26:47 435.950
Cubesat XI-IV 27 Nov 17:35:30 17:40:38 45° 77° (ENE) 17:45:44 437.490
MOZHAYETS 4 27 Nov 17:43:31 17:45:48 14° 282° (WNW) 17:48:06
CUBESAT XI-V 27 Nov 17:50:38 17:54:25 26° 102° (ESE) 17:58:13 437.345
AIST 2 27 Nov 18:02:34 18:05:44 22° 112° (ESE) 18:08:56 435.215
PCSat 27 Nov 18:08:29 18:13:49 63° 289° (WNW) 18:19:08 145.827
CUTE-I 27 Nov 18:16:15 18:21:33 60° 257° (WSW) 18:26:49 437.470
PRISM 27 Nov 18:21:02 18:24:38 28° 282° (WNW) 18:28:14 437.425
BEESAT 3 27 Nov 18:42:19 18:45:48 29° 292° (WNW) 18:49:19 437.485
JUGNU 27 Nov 18:52:41 18:58:29 68° 339° (NNW) 19:04:18 437.505
STRAND 1 27 Nov 18:57:08 19:01:58 46° 283° (WNW) 19:06:49 437.568
BEESAT 2 27 Nov 18:59:36 19:02:33 20° 292° (WNW) 19:05:30 435.950
SRMSAT 27 Nov 19:05:43 19:11:33 60° 159° (SSE) 19:17:25 437.500
AIST 1 27 Nov 19:07:24 19:11:45 71° 274° (W) 19:16:06
Cubesat XI-IV 27 Nov 19:18:49 19:20:25 11° 257° (WSW) 19:22:00 437.490
CUBESAT XI-V 27 Nov 19:29:03 19:31:36 15° 282° (WNW) 19:34:09 437.345
BRITE-PL 27 Nov 19:29:30 19:30:39 11° 80° (E) 19:31:48 437.365/2234.400
GONETS M04 27 Nov 19:33:58 19:42:41 74° 87° (E) 19:51:22
AIST 2 27 Nov 19:41:54 19:44:07 14° 293° (WNW) 19:46:20 435.215
HO-68 27 Nov 19:46:48 19:52:49 29° 75° (ENE) 19:58:48 435.675
CUTE 1.7 + AOD 2 27 Nov 19:51:56 19:54:39 17° 78° (ENE) 19:57:22 437.475
SEEDS 27 Nov 20:21:40 20:25:34 38° 79° (ENE) 20:29:26 437.485
GOMX 1 27 Nov 20:27:09 20:32:03 41° 79° (E) 20:36:37 467.674
ISS 27 Nov 20:31:02 20:33:59 30° 305° (NW) 20:36:55 145.825
DELFI C3 27 Nov 20:34:22 20:35:53 12° 78° (ENE) 20:37:25 145.870
Oscar 11 27 Nov 20:34:25 20:37:08 17° 78° (ENE) 20:39:51 145.826/435.025
AAUSAT CUBESAT 2 27 Nov 20:35:07 20:39:02 41° 79° (ENE) 20:42:55 437.432
JUGNU 27 Nov 20:42:54 20:47:41 26° 342° (NNW) 20:52:29 437.505
COMPASS 1 27 Nov 20:51:19 20:55:30 89° 78° (ENE) 20:59:39 437.405
CANX-2 27 Nov 20:51:51 20:55:57 51° 258° (WSW) 21:00:02 2200.000
SRMSAT 27 Nov 20:55:03 21:00:47 50° 339° (NNW) 21:06:33 437.500
DX 1 27 Nov 21:00:19 21:04:19 35° 78° (ENE) 21:08:18 434.975-435.025
UWE-3 27 Nov 21:00:25 21:03:12 17° 79° (E) 21:05:56 435.000/436.395/437.385
CUBEBUG 2 27 Nov 21:03:03 21:06:31 22° 79° (E) 21:09:53 437.445
BRITE-PL 27 Nov 21:03:43 21:09:00 47° 257° (WSW) 21:13:56 437.365/2234.400
DOVE 4 27 Nov 21:15:09 21:20:09 67° 258° (WSW) 21:24:49 437.250
UNISAT 6 27 Nov 21:21:53 21:24:01 13° 103° (ESE) 21:26:10 437.425
CUTE 1.7 + AOD 2 27 Nov 21:27:25 21:30:20 18° 258° (WSW) 21:33:14 437.475
ZACube-1 27 Nov 21:30:27 21:34:28 36° 79° (E) 21:38:22 437.345
HO-68 27 Nov 21:34:05 21:40:11 31° 255° (WSW) 21:46:18 435.675
GONETS M04 27 Nov 21:36:30 21:39:06 12° 267° (W) 21:41:41
VELOX 1 27 Nov 21:37:52 21:41:36 26° 78° (ENE) 21:45:18 145.980
CINEMA 3 27 Nov 21:38:52 21:43:30 58° 258° (WSW) 21:47:54 145.822/145.860
POLYITAN 1 27 Nov 21:48:19 21:51:07 17° 102° (ESE) 21:53:56 437.675
ANTELSAT 27 Nov 21:48:49 21:52:55 32° 102° (ESE) 21:57:05 437.575/2403.000
QB50P2 27 Nov 21:49:33 21:52:27 18° 102° (ESE) 21:55:21 145.880/145.840
DUCHIFAT 1 27 Nov 21:54:12 21:57:19 20° 102° (ESE) 22:00:28 145.980
UKube-1 27 Nov 21:59:06 22:03:01 33° 258° (WSW) 22:06:55 .
AISAT 27 Nov 22:04:27 22:08:55 65° 78° (ENE) 22:13:22 437.250
FUNcube-1 27 Nov 22:04:40 22:09:01 68° 258° (WSW) 22:13:13 145.935
DELFI C3 27 Nov 22:07:42 22:10:56 23° 258° (WSW) 22:14:10 145.870
GOMX 1 27 Nov 22:08:08 22:09:44 11° 256° (WSW) 22:11:18 467.674
Oscar 11 27 Nov 22:09:56 22:13:03 20° 258° (WSW) 22:16:09 145.826/435.025
PHONESAT 2.4 27 Nov 22:10:24 22:14:02 60° 43° (NE) 22:17:40 2401.200-2431.200
CUBEBUG 1 27 Nov 22:12:00 22:15:19 21° 78° (ENE) 22:18:38 437.445
NANOSAT C BR1 27 Nov 22:13:04 22:17:01 39° 102° (ESE) 22:20:59 145.865
50 SAT 27 Nov 22:13:32 22:17:35 65° 79° (ENE) 22:21:35 437.505
VERMONT LUNAR 27 Nov 22:14:32 22:18:06 61° 223° (SW) 22:21:39 437.305
QB50P1 27 Nov 22:23:01 22:27:09 56° 102° (ESE) 22:31:19 145.935-145.965
BUGSAT 1 27 Nov 22:24:45 22:28:35 44° 102° (ESE) 22:32:26 437.445
JUGNU 27 Nov 22:34:55 22:37:23 13° 350° (N) 22:39:51 437.505
CUSAT 1 27 Nov 22:35:08 22:35:44 10° 90° (E) 22:36:20 437.405
UWE-3 27 Nov 22:36:17 22:39:30 20° 257° (WSW) 22:42:39 435.000/436.395/437.385
HUMSAT D 27 Nov 22:36:34 22:40:34 42° 258° (WSW) 22:44:30 437.325/437.525
CUBEBUG 2 27 Nov 22:40:23 22:42:57 15° 257° (WSW) 22:45:28 437.445
TIGRISAT 27 Nov 22:41:26 22:45:50 49° 282° (WNW) 22:50:22 435.000
SRMSAT 27 Nov 22:45:58 22:50:18 21° 344° (NNW) 22:54:39 437.500
POPSAT HIP 1 27 Nov 22:48:01 22:52:10 59° 282° (WNW) 22:56:22 437.405
UNISAT 6 27 Nov 22:56:30 23:00:30 30° 282° (WNW) 23:04:36 437.425
DANDE 27 Nov 23:04:02 23:08:52 20° 90° (E) 23:14:20 436.750
TISAT 1 27 Nov 23:13:13 23:16:45 25° 78° (ENE) 23:20:16 437.305
VELOX 1 27 Nov 23:15:36 23:17:54 14° 257° (WSW) 23:20:13 145.980
ESTCUBE 1 27 Nov 23:18:39 23:22:55 41° 258° (WSW) 23:27:11 437.505/2401.250
POLYITAN 1 27 Nov 23:23:53 23:26:48 18° 282° (WNW) 23:29:46 437.675
QB50P2 27 Nov 23:25:17 23:28:06 18° 282° (WNW) 23:30:57 145.880/145.840
ANTELSAT 27 Nov 23:27:34 23:29:28 12° 282° (WNW) 23:31:23 437.575/2403.000
SPROUT 27 Nov 23:28:12 23:32:10 35° 78° (ENE) 23:36:07 437.525
DUCHIFAT 1 27 Nov 23:30:29 23:32:56 15° 282° (WNW) 23:35:25 145.980
CUBEBUG 1 27 Nov 23:48:30 23:51:25 17° 258° (WSW) 23:54:20 437.445
CUSAT 1 28 Nov 00:11:09 00:17:56 80° 265° (W) 00:26:16 437.405
YUBILEINY 28 Nov 00:25:44 00:29:19 13° 93° (E) 00:32:52 435.215
AUBIESAT-1 28 Nov 00:37:44 00:41:06 38° 74° (ENE) 00:44:43 437.475
SRMSAT 28 Nov 00:38:39 00:40:21 11° 353° (N) 00:42:04 437.500
Oscar 19 28 Nov 00:43:51 00:48:38 38° 103° (ESE) 00:53:26 437.125/150
M-CUBED/EXP-1 PRIME 28 Nov 00:44:09 00:47:40 57° 74° (ENE) 00:51:28 437.505
DANDE 28 Nov 00:45:20 00:51:44 47° 263° (W) 00:59:36 436.750
ITUPSAT 1 28 Nov 00:49:20 00:53:56 46° 78° (ENE) 00:58:30 437.325
TISAT 1 28 Nov 00:50:24 00:52:19 13° 258° (WSW) 00:54:14 437.305
SWISSCUBE 28 Nov 00:59:20 01:04:07 72° 78° (ENE) 01:08:54 437.505
MaSat-1 28 Nov 01:20:44 01:23:23 82° 252° (WSW) 01:26:20 437.345
KKS-1 28 Nov 01:27:42 01:30:54 19° 78° (ENE) 01:34:04 437.445
BEESAT 28 Nov 01:30:09 01:34:46 49° 258° (WSW) 01:39:22 436.000
RS-15 28 Nov 01:40:23 01:51:33 51° 70° (ENE) 02:03:05 29.354- 29.394
ITAMSAT 1 28 Nov 01:40:48 01:45:50 55° 103° (ESE) 01:50:53 435.822/435.867
SO-50 28 Nov 01:46:59 01:51:20 69° 292° (WNW) 01:55:45 436.795
JUGNU 28 Nov 02:14:44 02:17:42 14° 11° (N) 02:20:40 437.505
YUBILEINY 28 Nov 02:16:58 02:25:44 70° 273° (W) 02:34:28 435.215
STARS 28 Nov 02:18:15 02:22:38 61° 78° (ENE) 02:26:59 437.465
Gurwin Techsat 1B 28 Nov 02:23:51 02:29:09 90° 280° (W) 02:34:28 435.225
Oscar 19 28 Nov 02:25:29 02:27:41 13° 283° (WNW) 02:29:54 437.125/150
SRMSAT 28 Nov 02:29:58 02:30:46 10° 4° (N) 02:31:34 437.500
HORYU 2 28 Nov 02:57:22 03:01:53 89° 281° (W) 03:06:25 437.375
KKS-1 28 Nov 03:04:09 03:07:16 19° 258° (WSW) 03:10:22 437.445
AO-7 28 Nov 03:41:54 03:50:11 69° 106° (ESE) 03:58:28 29.400- 29.500
RS-15 28 Nov 03:53:53 04:03:37 30° 248° (WSW) 04:13:43 29.354- 29.394
JUGNU 28 Nov 04:02:13 04:07:21 29° 18° (NNE) 04:12:29 437.505
SRMSAT 28 Nov 04:17:08 04:20:57 17° 14° (NNE) 04:24:46 437.500
MOZHAYETS 4 28 Nov 04:21:35 04:25:59 48° 78° (ENE) 04:30:23
JAS-2 28 Nov 04:27:42 04:33:10 39° 101° (E) 04:38:10 435.910
O/OREOS (USA 219) 28 Nov 04:32:03 04:36:35 75° 284° (WNW) 04:41:04 437.305
PRISM 28 Nov 04:52:20 04:54:03 12° 78° (ENE) 04:55:46 437.425
PCSat 28 Nov 05:02:30 05:06:57 26° 71° (ENE) 05:11:24 145.827
BEESAT 3 28 Nov 05:02:56 05:04:22 12° 67° (ENE) 05:05:48 437.485
CUTE-I 28 Nov 05:16:51 05:21:10 26° 103° (ESE) 05:25:31 437.470
BEESAT 2 28 Nov 05:18:44 05:21:32 18° 68° (ENE) 05:24:18 435.950
AO-7 28 Nov 05:38:25 05:42:31 15° 287° (WNW) 05:46:38 29.400- 29.500
JUGNU 28 Nov 05:50:33 05:56:32 78° 21° (NNE) 06:02:33 437.505
STRAND 1 28 Nov 05:51:33 05:55:50 27° 77° (ENE) 06:00:06 437.568
